sat.trackr.live / text

‹ back to catalog

USA 176 (DSP 22)

NORAD 28158 · 2004-004A

PAYLOAD ACTIVE UNKNOWN

§ Identity

Operator
Country
US
Launch date
2004-02-14
Launch site
AFETR
Launch vehicle
Mass (kg)
RCS (m²)

Purposes: comms

External: N2YO · Heavens-Above · Gunter

§ Orbital elements

Epoch: 2026-09-18T06:24:08.303328Z

Period
1,456.72 min
Inclination
12.1825°
Eccentricity
0.0015284
Mean motion
0.98852003 rev/d
Perigee alt
36,124.3 km
Apogee alt
36,254.4 km
Semi-major
42,567.5 km
B*
0.0000e+0
RAAN
25.3658°
Arg perigee
279.4701°
Mean anomaly
73.4916°
Rev number
3,386

§ Raw data

USA 176 (DSP 22)1 28158U 04004A   26261.26676277 -.00000100  00000+0  00000+0 0  99922 28158  12.1825  25.3658 0015284 279.4701  73.4916  0.98852003 33869

JSON: /api/v1/satellites/28158 · /tle

For live sub-satellite position, see the globe view (requires WebGL).

§ Visibility from observer

Set your observer location to see the next 7 days of passes ≥ 10°. The values pass through the URL so the page stays shareable.

No JS? Fill the form by hand. The geolocation button needs JavaScript.